Location: Observatoire
(46.1952°N, 5.3391°E)
Time: 00:08:54
(UTC+01:00)

Courier 1B Rocket - Pass Details

Date: 20 February 2026
Orbit: 920 x 1201 km, 28.2° (Epoch: 11 March)

Event Time Altitude Azimuth Distance (km) Brightness Sun altitude
Rises 18:41:57 0° 213° (SSW) 3,544 8.6 -5.9°
Reaches altitude 10° 18:47:14 10° 176° (S) 2,601 7.3 -6.8°
Maximum altitude 18:48:23 11° 165° (SSE) 2,567 7.2 -7.0°
Drops below altitude 10° 18:49:32 10° 154° (SSE) 2,609 7.1 -7.2°
Enters shadow 18:54:10 - 120° (ESE) 3,408 7.4 -8.0°
Sets 18:54:53 0° 117° (ESE) 3,592 - -8.2°
